QFA2 WSSS-YSSY

Flight info

Callsign QFA2
Flight time N/A
Altitude 37000
Route IDBUD1A IDBUD T24 SURGA M635 ATMAP A576 APOMA Y52 VELGI Y105 TARAL Y59 RIVET
Aircraft A388/J-SADE2E3FGHIJ3J4J5M1RWXY/LB1D1

Departure

Time N/A
Airport Singapore Changi Airport (WSSS)

Arrival

Time 2026-04-30 20:48
Airport Sydney Kingsford Smith International Airport (YSSY)
Time Latitude Longitude Altitude Speed Heading
2026-04-30 18:05 -21.68811 130.26976 38351 ft 547 kts 128°
2026-04-30 18:06 -21.77068 130.40678 39063 ft 545 kts 128°
2026-04-30 18:08 -21.91398 130.64518 39067 ft 542 kts 128°
2026-04-30 18:10 -22.07750 130.91887 39072 ft 543 kts 128°
2026-04-30 18:11 -22.22012 131.15860 39078 ft 543 kts 128°
2026-04-30 18:13 -22.32165 131.32994 39097 ft 543 kts 128°
2026-04-30 18:14 -22.42325 131.50194 39078 ft 542 kts 128°
2026-04-30 18:15 -22.54446 131.70787 39083 ft 542 kts 128°
2026-04-30 18:16 -22.62526 131.84560 39083 ft 542 kts 128°
2026-04-30 18:17 -22.66566 131.91460 39081 ft 542 kts 128°
2026-04-30 18:18 -22.72619 132.01816 39090 ft 542 kts 128°
2026-04-30 18:18 -22.76647 132.08718 39097 ft 542 kts 128°
2026-04-30 18:19 -22.80659 132.15602 39090 ft 543 kts 128°
2026-04-30 18:19 -22.84700 132.22544 39094 ft 543 kts 128°
2026-04-30 18:20 -22.88731 132.29480 39097 ft 543 kts 128°
2026-04-30 18:20 -22.92732 132.36374 39096 ft 543 kts 128°
2026-04-30 18:21 -22.96754 132.43311 39094 ft 543 kts 128°
2026-04-30 18:21 -23.00779 132.50264 39096 ft 543 kts 128°
2026-04-30 18:22 -23.04793 132.57207 39102 ft 543 kts 128°
2026-04-30 18:22 -23.10795 132.67607 39114 ft 543 kts 128°
2026-04-30 18:23 -23.14812 132.74577 39104 ft 544 kts 128°
2026-04-30 18:23 -23.18822 132.81546 39105 ft 544 kts 128°
2026-04-30 18:24 -23.24837 132.92019 39109 ft 544 kts 128°
2026-04-30 18:25 -23.28847 132.99012 39099 ft 545 kts 128°
2026-04-30 18:25 -23.34840 133.09481 39118 ft 546 kts 128°
2026-04-30 18:26 -23.40854 133.20008 39118 ft 546 kts 127°
2026-04-30 18:27 -23.46858 133.30541 39123 ft 545 kts 127°
2026-04-30 18:28 -23.52852 133.41079 39118 ft 545 kts 127°
2026-04-30 18:28 -23.58814 133.51579 39116 ft 545 kts 127°
2026-04-30 18:29 -23.66785 133.65653 39121 ft 545 kts 127°
2026-04-30 18:30 -23.74754 133.79761 39099 ft 546 kts 127°
2026-04-30 18:31 -23.80967 133.90053 39116 ft 537 kts 136°
2026-04-30 18:32 -23.88150 133.99447 39098 ft 537 kts 136°
2026-04-30 18:33 -23.95323 134.08889 39102 ft 537 kts 135°
2026-04-30 18:33 -24.02487 134.18337 39105 ft 538 kts 136°
2026-04-30 18:34 -24.09625 134.27770 39104 ft 538 kts 135°
2026-04-30 18:35 -24.14392 134.34079 39125 ft 537 kts 135°
2026-04-30 18:35 -24.19167 134.40406 39096 ft 538 kts 135°
2026-04-30 18:36 -24.26320 134.49902 39098 ft 538 kts 135°
2026-04-30 18:37 -24.33459 134.59397 39087 ft 538 kts 135°
2026-04-30 18:37 -24.38192 134.65702 39091 ft 538 kts 135°
2026-04-30 18:38 -24.42946 134.72043 39093 ft 538 kts 135°
2026-04-30 18:38 -24.47710 134.78407 39093 ft 539 kts 135°
2026-04-30 18:39 -24.52441 134.84733 39094 ft 539 kts 135°
2026-04-30 18:39 -24.57197 134.91102 39093 ft 539 kts 135°
2026-04-30 18:40 -24.61959 134.97488 39081 ft 540 kts 135°
2026-04-30 18:40 -24.66718 135.03877 39101 ft 540 kts 135°
2026-04-30 18:41 -24.71479 135.10279 39096 ft 540 kts 135°
2026-04-30 18:41 -24.76200 135.16635 39101 ft 540 kts 135°
2026-04-30 18:42 -24.80949 135.23037 39099 ft 540 kts 135°
2026-04-30 18:42 -24.87293 135.31603 39095 ft 539 kts 135°
2026-04-30 18:45 -25.13322 135.66909 39096 ft 541 kts 135°
2026-04-30 18:46 -25.18025 135.73317 39099 ft 541 kts 135°
2026-04-30 18:46 -25.22763 135.79781 39097 ft 541 kts 135°
2026-04-30 18:47 -25.27491 135.86240 39096 ft 540 kts 135°
2026-04-30 18:47 -25.32219 135.92708 39093 ft 540 kts 135°
2026-04-30 18:48 -25.36942 135.99179 39097 ft 540 kts 135°
2026-04-30 18:48 -25.41627 136.05606 39092 ft 539 kts 135°
2026-04-30 18:49 -25.46338 136.12077 39090 ft 539 kts 135°
2026-04-30 18:49 -25.51043 136.18550 39091 ft 539 kts 135°
2026-04-30 18:50 -25.55737 136.25016 39092 ft 538 kts 135°
2026-04-30 18:50 -25.60392 136.31438 39089 ft 538 kts 134°
2026-04-30 18:51 -25.65074 136.37905 39097 ft 538 kts 135°
2026-04-30 18:51 -25.69759 136.44385 39091 ft 538 kts 135°
2026-04-30 18:52 -25.74442 136.50872 39092 ft 538 kts 135°
2026-04-30 18:52 -25.79116 136.57355 39094 ft 538 kts 135°
2026-04-30 18:53 -25.83768 136.63815 39091 ft 538 kts 135°
2026-04-30 18:53 -25.88440 136.70310 39101 ft 539 kts 134°
2026-04-30 18:54 -25.93118 136.76825 39085 ft 540 kts 134°
2026-04-30 18:54 -25.97793 136.83358 39093 ft 540 kts 134°
2026-04-30 18:55 -26.02468 136.89892 39092 ft 540 kts 134°
2026-04-30 18:55 -26.09490 136.99723 39103 ft 541 kts 134°
2026-04-30 18:56 -26.16507 137.09570 39101 ft 541 kts 134°
2026-04-30 18:57 -26.23484 137.19379 39099 ft 540 kts 134°
2026-04-30 18:57 -26.28152 137.25954 39097 ft 540 kts 134°
2026-04-30 18:58 -26.35140 137.35814 39108 ft 540 kts 134°
2026-04-30 18:59 -26.42128 137.45697 39095 ft 541 kts 134°
2026-04-30 19:00 -26.51420 137.58871 39099 ft 541 kts 134°
2026-04-30 19:01 -26.60728 137.72108 39104 ft 541 kts 134°
2026-04-30 19:02 -26.67710 137.82062 39110 ft 541 kts 133°
2026-04-30 19:03 -26.76956 137.95278 39103 ft 540 kts 133°
2026-04-30 19:04 -26.86169 138.08486 39105 ft 539 kts 133°
2026-04-30 19:05 -26.95390 138.21750 39102 ft 539 kts 133°
2026-04-30 19:06 -27.04572 138.35003 39105 ft 539 kts 133°
2026-04-30 19:06 -27.11469 138.44968 39118 ft 539 kts 133°
2026-04-30 19:07 -27.18355 138.54949 39121 ft 538 kts 133°
2026-04-30 19:08 -27.27506 138.68247 39119 ft 537 kts 133°
2026-04-30 19:09 -27.34331 138.78194 39115 ft 537 kts 132°
2026-04-30 19:09 -27.38893 138.84854 39120 ft 536 kts 132°
2026-04-30 19:10 -27.47950 138.98107 39118 ft 534 kts 132°
2026-04-30 19:11 -27.54742 139.08073 39124 ft 533 kts 132°
2026-04-30 19:12 -27.59262 139.14718 39133 ft 532 kts 132°
2026-04-30 19:12 -27.63733 139.21300 39128 ft 532 kts 132°
2026-04-30 19:13 -27.72723 139.34565 39126 ft 531 kts 132°
2026-04-30 19:14 -27.77217 139.41211 39145 ft 531 kts 132°
2026-04-30 19:14 -27.81673 139.47811 39130 ft 532 kts 132°
2026-04-30 19:15 -27.86159 139.54465 39140 ft 532 kts 131°
2026-04-30 19:15 -27.92888 139.64470 39142 ft 533 kts 131°
2026-04-30 19:16 -27.97375 139.71150 39147 ft 533 kts 131°
2026-04-30 19:17 -28.04066 139.81134 39148 ft 533 kts 131°
2026-04-30 19:17 -28.10778 139.91173 39145 ft 532 kts 131°
2026-04-30 19:18 -28.17473 140.01210 39145 ft 532 kts 131°
2026-04-30 19:19 -28.21936 140.07913 39142 ft 533 kts 131°
2026-04-30 19:19 -28.28639 140.18001 39145 ft 533 kts 131°
2026-04-30 19:20 -28.33097 140.24723 39147 ft 534 kts 131°
2026-04-30 19:21 -28.39788 140.34833 39151 ft 534 kts 131°
2026-04-30 19:22 -28.48711 140.48352 39158 ft 534 kts 131°
2026-04-30 19:23 -28.62039 140.68626 39170 ft 534 kts 130°
2026-04-30 19:24 -28.68705 140.78804 39167 ft 534 kts 130°
2026-04-30 19:25 -28.79764 140.95742 39176 ft 534 kts 130°
2026-04-30 19:26 -28.88618 141.09354 39180 ft 534 kts 130°
2026-04-30 19:27 -28.95248 141.19574 39170 ft 533 kts 130°
2026-04-30 19:28 -29.01865 141.29798 39198 ft 533 kts 130°
2026-04-30 19:29 -29.10661 141.43432 39184 ft 533 kts 130°
2026-04-30 19:30 -29.19466 141.57123 39185 ft 534 kts 130°
2026-04-30 19:31 -29.27518 141.69681 39206 ft 534 kts 130°
2026-04-30 19:31 -29.34077 141.79940 39204 ft 534 kts 129°
2026-04-30 19:32 -29.38465 141.86818 39211 ft 534 kts 129°
2026-04-30 19:32 -29.42846 141.93696 39212 ft 533 kts 129°
2026-04-30 19:33 -29.47217 142.00570 39213 ft 533 kts 129°
2026-04-30 19:33 -29.51581 142.07443 39219 ft 532 kts 129°
2026-04-30 19:34 -29.55933 142.14312 39222 ft 531 kts 129°
2026-04-30 19:35 -29.62451 142.24617 39219 ft 531 kts 129°
2026-04-30 19:35 -29.66788 142.31488 39217 ft 530 kts 129°
2026-04-30 19:36 -29.71082 142.38304 39227 ft 529 kts 129°
2026-04-30 19:36 -29.77558 142.48603 39218 ft 529 kts 129°
2026-04-30 19:37 -29.81874 142.55477 39225 ft 528 kts 129°
2026-04-30 19:37 -29.86176 142.62338 39221 ft 527 kts 129°
2026-04-30 19:38 -29.90467 142.69189 39220 ft 527 kts 129°
2026-04-30 19:38 -29.95006 142.75716 39218 ft 525 kts 133°
2026-04-30 19:39 -29.99664 142.82194 39229 ft 524 kts 132°
2026-04-30 19:39 -30.04282 142.88719 39230 ft 524 kts 132°
2026-04-30 19:40 -30.08882 142.95262 39230 ft 524 kts 132°
2026-04-30 19:40 -30.13471 143.01806 39242 ft 524 kts 132°
2026-04-30 19:41 -30.18032 143.08325 39243 ft 524 kts 131°
2026-04-30 19:41 -30.22604 143.14870 39241 ft 524 kts 131°
2026-04-30 19:42 -30.27187 143.21440 39243 ft 523 kts 131°
2026-04-30 19:42 -30.31760 143.28009 39248 ft 523 kts 131°
2026-04-30 19:43 -30.36335 143.34591 39246 ft 523 kts 131°
2026-04-30 19:44 -30.43150 143.44414 39251 ft 523 kts 131°
2026-04-30 19:44 -30.47710 143.51001 39251 ft 523 kts 131°
2026-04-30 19:45 -30.52261 143.57586 39256 ft 523 kts 131°
2026-04-30 19:45 -30.56809 143.64178 39260 ft 523 kts 131°
2026-04-30 19:46 -30.61356 143.70779 39256 ft 523 kts 131°
2026-04-30 19:46 -30.65879 143.77358 39261 ft 523 kts 131°
2026-04-30 19:47 -30.70428 143.83984 39261 ft 523 kts 131°
2026-04-30 19:47 -30.74947 143.90578 39259 ft 523 kts 131°
2026-04-30 19:48 -30.79475 143.97196 39260 ft 523 kts 131°
2026-04-30 19:48 -30.84003 144.03825 39262 ft 522 kts 131°
2026-04-30 19:49 -30.88517 144.10444 39260 ft 522 kts 131°
2026-04-30 19:49 -30.95294 144.20403 39261 ft 523 kts 131°
2026-04-30 19:50 -30.99804 144.27046 39276 ft 523 kts 131°
2026-04-30 19:50 -31.04309 144.33692 39265 ft 523 kts 131°
2026-04-30 19:51 -31.08796 144.40322 39266 ft 523 kts 131°
2026-04-30 19:51 -31.13294 144.46981 39271 ft 523 kts 131°
2026-04-30 19:52 -31.17813 144.53681 39268 ft 523 kts 131°
2026-04-30 19:52 -31.22316 144.60371 39268 ft 523 kts 131°
2026-04-30 19:53 -31.26808 144.67053 39275 ft 523 kts 131°
2026-04-30 19:53 -31.31277 144.73714 39274 ft 523 kts 130°
2026-04-30 19:54 -31.35769 144.80421 39278 ft 523 kts 130°
2026-04-30 19:54 -31.40257 144.87133 39288 ft 524 kts 130°
2026-04-30 19:55 -31.44737 144.93845 39289 ft 524 kts 130°
2026-04-30 19:55 -31.49228 145.00586 39291 ft 523 kts 130°
2026-04-30 19:56 -31.53697 145.07307 39299 ft 523 kts 130°
2026-04-30 19:56 -31.58170 145.14042 39296 ft 523 kts 130°
2026-04-30 19:57 -31.62600 145.20726 39299 ft 522 kts 130°
2026-04-30 19:57 -31.67067 145.27477 39301 ft 522 kts 130°
2026-04-30 19:58 -31.71510 145.34204 39306 ft 521 kts 130°
2026-04-30 19:58 -31.75949 145.40937 39305 ft 520 kts 130°
2026-04-30 19:59 -31.80352 145.47626 39307 ft 520 kts 130°
2026-04-30 20:00 -31.86989 145.57731 39322 ft 520 kts 130°
2026-04-30 20:00 -31.91412 145.64481 39323 ft 519 kts 130°
2026-04-30 20:01 -31.97998 145.74554 39318 ft 519 kts 130°
2026-04-30 20:01 -32.02403 145.81307 39330 ft 519 kts 130°
2026-04-30 20:02 -32.08992 145.91428 39334 ft 518 kts 130°
2026-04-30 20:03 -32.15562 146.01547 39333 ft 518 kts 130°
2026-04-30 20:03 -32.19934 146.08298 39341 ft 517 kts 130°
2026-04-30 20:04 -32.24301 146.15051 39345 ft 517 kts 130°
2026-04-30 20:05 -32.30820 146.25155 39353 ft 517 kts 130°
2026-04-30 20:05 -32.37350 146.35303 39357 ft 516 kts 130°
2026-04-30 20:06 -32.41695 146.42069 39355 ft 516 kts 130°
2026-04-30 20:06 -32.46036 146.48844 39342 ft 516 kts 130°
2026-04-30 20:07 -32.50383 146.55639 39340 ft 516 kts 130°
2026-04-30 20:08 -32.56859 146.65785 39340 ft 517 kts 129°
2026-04-30 20:08 -32.61198 146.72598 39344 ft 517 kts 129°
2026-04-30 20:09 -32.65503 146.79369 39365 ft 517 kts 129°
2026-04-30 20:09 -32.72044 146.89681 39357 ft 522 kts 129°
2026-04-30 20:10 -32.78585 147.00025 39356 ft 522 kts 129°
2026-04-30 20:11 -32.85103 147.10358 39360 ft 522 kts 129°
2026-04-30 20:11 -32.89455 147.17275 39370 ft 521 kts 129°
2026-04-30 20:12 -32.95975 147.27660 39368 ft 521 kts 129°
2026-04-30 20:13 -33.00277 147.34528 39362 ft 520 kts 129°
2026-04-30 20:13 -33.04599 147.41440 39379 ft 520 kts 129°
2026-04-30 20:14 -33.08920 147.48364 39375 ft 519 kts 129°
2026-04-30 20:14 -33.12912 147.55533 39373 ft 521 kts 118°
2026-04-30 20:15 -33.16126 147.63304 39375 ft 522 kts 118°
2026-04-30 20:15 -33.19323 147.71016 39378 ft 521 kts 118°
2026-04-30 20:16 -33.22550 147.78780 39377 ft 522 kts 118°
2026-04-30 20:16 -33.25773 147.86552 39382 ft 522 kts 118°
2026-04-30 20:17 -33.28995 147.94341 39383 ft 522 kts 118°
2026-04-30 20:17 -33.31663 148.00806 39383 ft 522 kts 118°
2026-04-30 20:18 -33.34874 148.08601 39386 ft 522 kts 118°
2026-04-30 20:18 -33.38079 148.16399 39397 ft 522 kts 118°
2026-04-30 20:19 -33.41267 148.24172 39402 ft 522 kts 118°
2026-04-30 20:19 -33.44459 148.31974 39405 ft 522 kts 118°
2026-04-30 20:20 -33.47646 148.39779 39411 ft 521 kts 118°
2026-04-30 20:20 -33.50825 148.47584 39409 ft 521 kts 118°
2026-04-30 20:21 -33.53998 148.55394 39415 ft 521 kts 118°
2026-04-30 20:21 -33.57166 148.63208 39417 ft 520 kts 118°
2026-04-30 20:22 -33.60323 148.71013 39424 ft 520 kts 118°
2026-04-30 20:22 -33.63448 148.78757 39185 ft 513 kts 118°
2026-04-30 20:22 -33.64991 148.82589 38732 ft 507 kts 118°
2026-04-30 20:23 -33.66514 148.86376 38234 ft 500 kts 117°
2026-04-30 20:23 -33.68022 148.90125 37758 ft 496 kts 117°
2026-04-30 20:23 -33.69519 148.93851 37283 ft 495 kts 117°
2026-04-30 20:23 -33.71020 148.97591 36829 ft 498 kts 117°
2026-04-30 20:24 -33.72504 149.01294 36372 ft 498 kts 116°
2026-04-30 20:24 -33.74006 149.05045 35950 ft 498 kts 116°
2026-04-30 20:24 -33.75499 149.08781 35521 ft 496 kts 116°
2026-04-30 20:24 -33.76994 149.12523 35105 ft 496 kts 116°
2026-04-30 20:25 -33.79991 149.20039 34341 ft 496 kts 115°
2026-04-30 20:25 -33.81475 149.23767 33907 ft 491 kts 115°
2026-04-30 20:26 -33.84394 149.31117 33080 ft 483 kts 115°
2026-04-30 20:26 -33.87337 149.38542 32176 ft 497 kts 115°
2026-04-30 20:26 -33.88821 149.42290 31734 ft 494 kts 115°
2026-04-30 20:27 -33.91752 149.49705 30733 ft 487 kts 114°
2026-04-30 20:27 -33.94662 149.57087 29543 ft 490 kts 114°
2026-04-30 20:28 -33.97551 149.64430 28382 ft 484 kts 114°
2026-04-30 20:28 -34.00411 149.71714 27177 ft 476 kts 114°
2026-04-30 20:29 -34.02941 149.78997 25973 ft 470 kts 103°
2026-04-30 20:30 -34.03956 149.90790 24216 ft 470 kts 94°
2026-04-30 20:30 -34.04759 150.02383 22284 ft 455 kts 94°
2026-04-30 20:31 -34.05540 150.13443 20369 ft 426 kts 95°
2026-04-30 20:32 -34.06250 150.23629 18683 ft 394 kts 95°
2026-04-30 20:32 -34.06702 150.30147 17379 ft 387 kts 95°
2026-04-30 20:33 -34.06923 150.33364 16747 ft 383 kts 95°
2026-04-30 20:33 -34.07357 150.39706 15534 ft 375 kts 94°
2026-04-30 20:33 -34.07581 150.42827 14937 ft 372 kts 96°
2026-04-30 20:34 -34.08590 150.48887 13706 ft 365 kts 102°
2026-04-30 20:34 -34.09669 150.54810 12448 ft 357 kts 99°
2026-04-30 20:35 -34.10174 150.57733 11836 ft 355 kts 102°
2026-04-30 20:35 -34.10705 150.60630 11234 ft 352 kts 102°
2026-04-30 20:35 -34.11777 150.66273 9993 ft 337 kts 102°
2026-04-30 20:36 -34.12329 150.68969 9475 ft 325 kts 102°
2026-04-30 20:36 -34.12872 150.71570 8974 ft 314 kts 102°
2026-04-30 20:36 -34.13924 150.76481 8161 ft 290 kts 103°
2026-04-30 20:37 -34.14427 150.78805 7856 ft 283 kts 103°
2026-04-30 20:37 -34.14926 150.81083 7561 ft 278 kts 103°
2026-04-30 20:37 -34.15423 150.83312 7272 ft 273 kts 103°
2026-04-30 20:37 -34.15913 150.85476 6991 ft 268 kts 103°
2026-04-30 20:38 -34.16407 150.87632 6692 ft 265 kts 103°
2026-04-30 20:38 -34.16901 150.89766 6377 ft 261 kts 103°
2026-04-30 20:38 -34.17387 150.91859 6118 ft 256 kts 103°
2026-04-30 20:39 -34.18340 150.95927 5631 ft 248 kts 103°
2026-04-30 20:39 -34.18809 150.97921 5380 ft 245 kts 103°
2026-04-30 20:39 -34.19272 150.99891 5127 ft 243 kts 103°
2026-04-30 20:40 -34.20190 151.03811 4611 ft 242 kts 103°
2026-04-30 20:40 -34.20632 151.05743 4360 ft 241 kts 103°
2026-04-30 20:40 -34.21061 151.07677 4130 ft 235 kts 103°
2026-04-30 20:41 -34.21335 151.11420 3617 ft 220 kts 83°
2026-04-30 20:41 -34.21188 151.13245 3370 ft 217 kts 83°
2026-04-30 20:41 -34.21038 151.15055 3115 ft 215 kts 83°
2026-04-30 20:41 -34.20889 151.16823 3002 ft 203 kts 83°
2026-04-30 20:42 -34.20755 151.18420 2999 ft 185 kts 82°
2026-04-30 20:42 -34.20262 151.19817 3000 ft 183 kts 45°
2026-04-30 20:42 -34.18000 151.21196 2998 ft 183 kts 23°
2026-04-30 20:43 -34.16828 151.21794 3000 ft 183 kts 23°
2026-04-30 20:43 -34.15662 151.22367 3000 ft 183 kts 18°
2026-04-30 20:43 -34.14409 151.22591 3001 ft 183 kts 359°
2026-04-30 20:44 -34.11889 151.22101 3001 ft 185 kts 348°
2026-04-30 20:44 -34.10644 151.21773 2903 ft 179 kts 348°
2026-04-30 20:44 -34.08266 151.21153 2423 ft 172 kts 348°
2026-04-30 20:45 -34.05937 151.20545 1964 ft 166 kts 348°
2026-04-30 20:45 -34.04826 151.20255 1737 ft 162 kts 348°
2026-04-30 20:45 -34.03775 151.19981 1521 ft 146 kts 348°
2026-04-30 20:46 -34.00934 151.19240 985 ft 137 kts 348°
2026-04-30 20:46 -34.00007 151.18999 798 ft 135 kts 348°
2026-04-30 20:47 -33.98192 151.18518 410 ft 132 kts 347°
2026-04-30 20:47 -33.97297 151.18293 255 ft 130 kts 347°
2026-04-30 20:48 -33.95600 151.17850 34 ft 98 kts 348°
2026-04-30 20:48 -33.95124 151.17724 33 ft 42 kts 347°
2026-04-30 20:48 -33.94879 151.17661 34 ft 32 kts 348°
2026-04-30 20:48 -33.94680 151.17610 35 ft 27 kts 348°
2026-04-30 20:49 -33.94494 151.17563 35 ft 29 kts 348°
2026-04-30 20:49 -33.94290 151.17512 35 ft 30 kts 348°
2026-04-30 20:49 -33.94097 151.17463 31 ft 27 kts 348°
2026-04-30 20:50 -33.93767 151.17380 31 ft 22 kts 348°
2026-04-30 20:50 -33.93619 151.17343 31 ft 21 kts 348°
2026-04-30 20:50 -33.93483 151.17307 32 ft 17 kts 345°
2026-04-30 20:50 -33.93428 151.17239 32 ft 12 kts 267°
2026-04-30 20:51 -33.93443 151.17137 34 ft 13 kts 257°
2026-04-30 20:51 -33.93506 151.17015 35 ft 7 kts 259°
2026-04-30 20:51 -33.93518 151.16939 35 ft 12 kts 259°
2026-04-30 20:52 -33.93525 151.16901 35 ft 6 kts 249°
2026-04-30 20:52 -33.93552 151.16842 34 ft 9 kts 239°
2026-04-30 20:52 -33.93561 151.16824 35 ft 0 kts 237°